DW7003 Weather Reports


time (UTC)temp
C
wind
direction
speed
KPH
gust
KPH
rain 1hr
cm
rain 24hr
cm
rain mn
cm
humidity
%
barometer
mb
20260905091600 23 360 0.0 0.0 0.00 0.00 0.00 75 1009.3
20260905090057 23 360 0.0 0.0 0.00 0.00 0.00 76 1009.3
20260905084603 23 360 0.0 0.0 0.00 0.00 0.00 75 1009.3
20260905083055 23 360 0.0 0.0 0.00 0.00 0.00 75 1009.3
20260905081554 23 360 0.0 0.0 0.00 0.00 0.00 78 1009.3
20260905080100 23 360 0.0 0.0 0.00 0.00 0.00 74 1009.4
20260905074551 23 360 0.0 0.0 0.00 0.00 0.00 73 1009.4
20260905073054 23 360 0.0 0.0 0.00 0.00 0.00 70 1009.3
20260905071549 24 360 0.0 0.0 0.00 0.00 0.00 70 1009.4
20260905070048 24 360 0.0 0.0 0.00 0.00 0.00 70 1009.4
20260905064548 24 360 0.0 0.0 0.00 0.00 0.00 69 1009.6
20260905063047 24 360 0.0 0.0 0.00 0.00 0.00 70 1009.4
20260905061547 24 360 0.0 0.0 0.00 0.00 0.00 67 1009.6
20260905060045 24 360 0.0 0.0 0.00 0.00 0.00 72 1009.6
20260905054544 24 360 0.0 0.0 0.00 0.00 0.00 70 1009.7
20260905053044 24 360 0.0 0.0 0.00 0.00 0.00 72 1009.9
20260905051544 24 360 0.0 0.0 0.00 0.00 0.00 71 1010.0
20260905050037 24 360 0.0 0.0 0.00 0.00 0.00 71 1010.1
20260905044538 24 360 0.0 0.0 0.00 0.00 0.00 71 1010.2
20260905043042 25 360 0.0 0.0 0.00 0.00 0.00 73 1010.3
20260905041532 25 360 0.0 0.0 0.00 0.00 0.00 74 1010.5
20260905040032 25 360 0.0 0.0 0.00 0.00 0.00 72 1010.5
20260905034532 25 360 0.0 0.0 0.00 0.00 0.00 72 1010.5
20260905033058 25 360 0.0 0.0 0.00 0.00 0.00 72 1010.4
20260905031527 26 360 0.0 0.0 0.00 0.00 0.00 73 1010.3
20260905030033 26 360 0.0 0.0 0.00 0.00 0.00 71 1010.3
20260905024526 26 360 0.0 0.0 0.00 0.00 0.00 72 1010.2
20260905023026 26 360 0.0 0.0 0.00 0.00 0.00 71 1010.2
20260905021526 26 360 0.0 0.0 0.00 0.00 0.00 70 1010.2
20260905020024 26 360 0.0 0.0 0.00 0.00 0.00 71 1010.2
20260905014523 26 360 0.0 0.0 0.00 0.00 0.00 71 1010.2
20260905013024 26 360 0.0 0.0 0.00 0.00 0.00 73 1010.3
20260905011523 26 360 0.0 0.0 0.00 0.00 0.00 74 1010.3
20260905010022 26 360 0.0 0.0 0.00 0.00 0.00 75 1010.2
20260905004525 26 360 0.0 0.0 0.00 0.00 0.00 75 1010.0
20260905003023 26 360 0.0 0.0 0.00 0.00 0.00 76 1009.7
20260905001524 27 360 0.0 0.0 0.00 0.00 0.00 76 1009.7
20260905000020 27 360 0.0 0.0 0.00 0.00 0.00 76 1009.8
20260904234520 27 360 0.0 0.0 0.00 0.00 0.00 74 1009.9
20260904233020 27 360 0.0 0.0 0.00 0.00 0.00 72 1009.9
20260904231518 28 360 0.0 0.0 0.00 0.00 0.00 70 1009.9
20260904230030 28 360 0.0 0.0 0.00 0.00 0.00 67 1009.9
20260904224520 28 360 0.0 0.0 0.00 0.00 0.00 66 1010.0
20260904223018 29 360 0.0 0.0 0.00 0.00 0.00 64 1010.0
20260904221517 29 360 0.0 0.0 0.00 0.00 0.00 63 1010.0
20260904220017 29 360 0.0 0.0 0.00 0.00 0.00 62 1009.9
20260904214516 30 360 0.0 0.0 0.00 0.00 0.00 62 1009.9
20260904213022 30 360 0.0 0.0 0.00 0.00 0.00 59 1010.0
20260904211513 30 360 0.0 0.0 0.00 0.00 0.00 59 1009.7
20260904210012 30 360 0.0 0.0 0.00 0.00 0.00 59 1009.8
20260904204521 30 360 0.0 0.0 0.00 0.00 0.00 60 1009.9
20260904203015 31 347 0.0 0.0 0.00 0.00 0.00 58 1010.1
20260904201507 31 346 0.0 0.0 0.00 0.00 0.00 58 1010.3
20260904200007 31 343 0.0 0.0 0.00 0.00 0.00 60 1010.3
20260904194507 31 335 0.0 0.0 0.00 0.00 0.00 60 1010.4
20260904193006 31 342 0.0 0.0 0.00 0.00 0.00 58 1010.7
20260904191505 31 14 0.0 0.0 0.00 0.00 0.00 58 1010.8
20260904190005 31 102 0.0 0.0 0.00 0.00 0.00 59 1010.8
20260904184504 31 48 0.0 0.0 0.00 0.00 0.00 61 1010.9
20260904183003 30 342 0.0 0.0 0.00 0.00 0.00 59 1011.0
20260904181504 31 341 0.0 0.0 0.00 0.00 0.00 59 1011.0
20260904180003 30 336 0.0 0.0 0.00 0.00 0.00 58 1011.1
20260904174504 30 332 0.0 0.0 0.00 0.00 0.00 58 1011.0
20260904173005 31 329 0.0 0.0 0.00 0.00 0.00 56 1010.9
20260904171501 31 355 0.0 0.0 0.00 0.00 0.00 55 1011.0
20260904170001 31 39 0.0 0.0 0.00 0.00 0.00 56 1011.1
20260904164621 31 333 0.0 0.0 0.00 0.00 0.00 56 1010.9
20260904163059 31 324 0.0 0.0 0.00 0.00 0.00 57 1011.0
20260904161555 30 315 0.0 0.0 0.00 0.00 0.00 60 1011.1
20260904160052 30 309 0.0 0.0 0.00 0.00 0.00 57 1011.2
20260904154548 30 331 0.0 0.0 0.00 0.00 0.00 61 1011.2
20260904153103 29 333 0.0 0.0 0.00 0.00 0.00 63 1011.4
20260904151545 28 333 0.0 0.0 0.00 0.00 0.00 65 1011.4
20260904150045 28 332 0.0 0.0 0.00 0.00 0.00 67 1011.5
20260904144532 27 329 0.0 0.0 0.00 0.00 0.00 69 1011.4
20260904143029 27 327 0.0 0.0 0.00 0.00 0.00 71 1011.5
20260904141528 27 344 0.0 0.0 0.00 0.00 0.00 74 1011.5
20260904140032 26 360 0.0 0.0 0.00 0.00 0.00 77 1011.3
20260904134526 26 325 0.0 0.0 0.00 0.00 0.00 78 1011.3
20260904133019 26 347 0.0 0.0 0.00 0.00 0.00 80 1011.2
20260904131535 26 360 0.0 0.0 0.00 0.00 0.00 82 1011.1
20260904130013 25 355 0.0 0.0 0.00 0.00 0.00 83 1011.2
20260904124511 25 355 0.0 0.0 0.00 0.00 0.00 85 1011.2
20260904123010 25 355 0.0 0.0 0.00 0.00 0.00 86 1011.2
20260904121509 24 347 0.0 0.0 0.00 0.00 0.00 88 1011.0
20260904120008 24 84 0.0 0.0 0.00 0.00 0.00 89 1011.0
20260904114508 23 96 0.0 0.0 0.00 0.00 0.00 89 1011.1
20260904113019 23 96 0.0 0.0 0.00 0.00 0.00 89 1010.9
20260904111505 23 96 0.0 0.0 0.00 0.00 0.00 89 1010.7
20260904110004 23 96 0.0 0.0 0.00 0.00 0.00 89 1010.5
20260904104503 23 96 0.0 1.6 0.00 0.08 0.00 88 1010.4
20260904103100 24 96 0.0 0.0 0.00 0.08 0.00 87 1010.3
20260904101610 24 96 0.0 0.0 0.00 0.08 0.00 87 1010.3
20260904100108 24 96 0.0 0.0 0.00 0.08 0.00 86 1010.3
20260904094608 25 96 0.0 0.0 0.00 0.23 0.00 85 1010.2
20260904093103 25 96 0.0 0.0 0.00 0.23 0.00 85 1010.1